| time (UTC) | temp C | wind direction | speed KPH | gust KPH | rain 1hr cm | rain 24hr cm | rain mn cm | humidity % | barometer mb |
| 20260508230027 | 16 | 173 | 0.0 | 0.0 | 0.00 | 0.00 | 0.00 | 68 | 1009.2 |
| 20260508224528 | 16 | 265 | 0.0 | 0.0 | 0.00 | 0.00 | 0.00 | 65 | 1009.1 |
| 20260508223038 | 16 | 265 | 0.0 | 0.0 | 0.00 | 0.00 | 0.00 | 58 | 1009.2 |
| 20260508221525 | 17 | 265 | 0.0 | 0.0 | 0.00 | 0.00 | 0.00 | 54 | 1009.2 |
| 20260508220026 | 17 | 265 | 0.0 | 0.0 | 0.00 | 0.00 | 0.00 | 53 | 1009.2 |
| 20260508214529 | 17 | 264 | 0.0 | 0.0 | 0.00 | 0.00 | 0.00 | 50 | 1009.2 |
| 20260508213031 | 17 | 264 | 0.0 | 0.0 | 0.00 | 0.00 | 0.00 | 51 | 1009.1 |
| 20260508211522 | 18 | 264 | 0.0 | 1.6 | 0.00 | 0.00 | 0.00 | 50 | 1009.2 |
| 20260508210021 | 18 | 259 | 0.0 | 0.0 | 0.00 | 0.00 | 0.00 | 47 | 1009.6 |
| 20260508204525 | 18 | 239 | 0.0 | 3.2 | 0.00 | 0.00 | 0.00 | 48 | 1009.7 |
| 20260508203017 | 18 | 264 | 0.0 | 1.6 | 0.00 | 0.00 | 0.00 | 48 | 1010.0 |
| 20260508201517 | 18 | 271 | 0.0 | 1.6 | 0.00 | 0.00 | 0.00 | 50 | 1009.9 |
| 20260508200016 | 18 | 269 | 0.0 | 1.6 | 0.00 | 0.00 | 0.00 | 46 | 1010.0 |
| 20260508194514 | 18 | 252 | 0.0 | 1.6 | 0.00 | 0.00 | 0.00 | 46 | 1010.1 |
| 20260508193013 | 19 | 250 | 0.0 | 4.8 | 0.00 | 0.00 | 0.00 | 44 | 1010.3 |
| 20260508191511 | 20 | 271 | 0.0 | 3.2 | 0.00 | 0.00 | 0.00 | 43 | 1010.5 |
| 20260508190010 | 20 | 253 | 0.0 | 6.4 | 0.00 | 0.00 | 0.00 | 45 | 1010.8 |
| 20260508184506 | 20 | 266 | 0.0 | 3.2 | 0.00 | 0.00 | 0.00 | 46 | 1011.1 |
| 20260508183004 | 20 | 270 | 1.6 | 9.7 | 0.00 | 0.00 | 0.00 | 47 | 1011.3 |
| 20260508181500 | 19 | 267 | 0.0 | 6.4 | 0.00 | 0.00 | 0.00 | 46 | 1011.5 |
| 20260508180100 | 18 | 270 | 0.0 | 4.8 | 0.00 | 0.00 | 0.00 | 49 | 1011.8 |
| 20260508174602 | 18 | 265 | 1.6 | 4.8 | 0.00 | 0.00 | 0.00 | 50 | 1011.9 |
| 20260508173055 | 18 | 266 | 0.0 | 4.8 | 0.00 | 0.00 | 0.00 | 49 | 1012.2 |
| 20260508171554 | 18 | 250 | 1.6 | 9.7 | 0.00 | 0.00 | 0.00 | 47 | 1012.4 |
| 20260508170052 | 19 | 274 | 0.0 | 4.8 | 0.00 | 0.00 | 0.00 | 47 | 1012.5 |
| 20260508164551 | 18 | 261 | 0.0 | 6.4 | 0.00 | 0.00 | 0.00 | 48 | 1013.0 |
| 20260508163049 | 19 | 274 | 0.0 | 9.7 | 0.00 | 0.00 | 0.00 | 52 | 1013.1 |
| 20260508161545 | 18 | 321 | 0.0 | 3.2 | 0.00 | 0.00 | 0.00 | 51 | 1013.2 |
| 20260508160100 | 18 | 267 | 0.0 | 4.8 | 0.00 | 0.00 | 0.00 | 51 | 1013.4 |
| 20260508154538 | 18 | 274 | 1.6 | 6.4 | 0.00 | 0.00 | 0.00 | 50 | 1013.5 |
| 20260508153042 | 17 | 282 | 0.0 | 3.2 | 0.00 | 0.00 | 0.00 | 55 | 1013.6 |
| 20260508151536 | 17 | 269 | 0.0 | 8.0 | 0.00 | 0.00 | 0.00 | 54 | 1013.7 |
| 20260508150036 | 17 | 299 | 1.6 | 6.4 | 0.00 | 0.00 | 0.00 | 50 | 1013.7 |
| 20260508144530 | 16 | 269 | 0.0 | 4.8 | 0.00 | 0.00 | 0.00 | 52 | 1014.0 |
| 20260508143033 | 16 | 272 | 0.0 | 3.2 | 0.00 | 0.00 | 0.00 | 54 | 1014.2 |
| 20260508141531 | 15 | 272 | 0.0 | 3.2 | 0.00 | 0.00 | 0.00 | 52 | 1014.3 |
| 20260508140024 | 15 | 266 | 0.0 | 8.0 | 0.00 | 0.00 | 0.00 | 52 | 1014.3 |
| 20260508134529 | 15 | 266 | 1.6 | 6.4 | 0.00 | 0.00 | 0.00 | 54 | 1014.5 |
| 20260508133019 | 14 | 263 | 0.0 | 6.4 | 0.00 | 0.00 | 0.00 | 57 | 1014.4 |
| 20260508131515 | 13 | 273 | 0.0 | 3.2 | 0.00 | 0.00 | 0.00 | 57 | 1014.2 |
| 20260508130013 | 13 | 274 | 0.0 | 4.8 | 0.00 | 0.00 | 0.00 | 60 | 1014.2 |
| 20260508124510 | 12 | 227 | 0.0 | 4.8 | 0.00 | 0.00 | 0.00 | 60 | 1014.2 |
| 20260508123004 | 11 | 250 | 0.0 | 4.8 | 0.00 | 0.00 | 0.00 | 63 | 1014.3 |
| 20260508121609 | 10 | 236 | 0.0 | 1.6 | 0.00 | 0.00 | 0.00 | 67 | 1014.4 |
| 20260508120057 | 10 | 258 | 0.0 | 1.6 | 0.00 | 0.00 | 0.00 | 68 | 1014.3 |
| 20260508114556 | 10 | 255 | 0.0 | 1.6 | 0.00 | 0.00 | 0.00 | 67 | 1014.2 |
| 20260508113053 | 9 | 276 | 0.0 | 1.6 | 0.00 | 0.00 | 0.00 | 69 | 1014.0 |
| 20260508111550 | 8 | 245 | 0.0 | 1.6 | 0.00 | 0.00 | 0.00 | 70 | 1014.0 |
| 20260508110053 | 8 | 252 | 0.0 | 1.6 | 0.00 | 0.00 | 0.00 | 71 | 1013.8 |
| 20260508104546 | 8 | 255 | 0.0 | 1.6 | 0.00 | 0.00 | 0.00 | 73 | 1013.6 |
| 20260508103046 | 8 | 255 | 0.0 | 1.6 | 0.00 | 0.00 | 0.00 | 73 | 1013.6 |
| 20260508101545 | 7 | 254 | 0.0 | 1.6 | 0.00 | 0.00 | 0.00 | 74 | 1013.8 |
| 20260508100044 | 7 | 238 | 0.0 | 1.6 | 0.00 | 0.00 | 0.00 | 74 | 1013.8 |
| 20260508094554 | 7 | 240 | 0.0 | 1.6 | 0.00 | 0.00 | 0.00 | 75 | 1013.8 |
| 20260508093043 | 7 | 262 | 0.0 | 1.6 | 0.00 | 0.00 | 0.00 | 74 | 1014.0 |
| 20260508091543 | 7 | 263 | 0.0 | 0.0 | 0.00 | 0.00 | 0.00 | 74 | 1013.9 |
| 20260508090042 | 7 | 265 | 0.0 | 0.0 | 0.00 | 0.00 | 0.00 | 77 | 1013.9 |
| 20260508084542 | 6 | 265 | 0.0 | 1.6 | 0.00 | 0.00 | 0.00 | 77 | 1013.9 |
| 20260508083116 | 6 | 266 | 0.0 | 0.0 | 0.00 | 0.00 | 0.00 | 78 | 1014.0 |
| 20260508081542 | 7 | 266 | 0.0 | 0.0 | 0.00 | 0.00 | 0.00 | 76 | 1013.9 |
| 20260508080041 | 7 | 266 | 0.0 | 1.6 | 0.00 | 0.00 | 0.00 | 75 | 1013.8 |
| 20260508074537 | 7 | 252 | 0.0 | 0.0 | 0.00 | 0.00 | 0.00 | 73 | 1013.8 |
| 20260508073036 | 7 | 252 | 0.0 | 0.0 | 0.00 | 0.00 | 0.00 | 72 | 1013.9 |
| 20260508071536 | 7 | 252 | 0.0 | 0.0 | 0.00 | 0.00 | 0.00 | 72 | 1014.0 |
| 20260508070031 | 7 | 252 | 0.0 | 1.6 | 0.00 | 0.00 | 0.00 | 71 | 1013.9 |
| 20260508064544 | 7 | 231 | 0.0 | 1.6 | 0.00 | 0.00 | 0.00 | 71 | 1014.2 |
| 20260508063027 | 7 | 235 | 0.0 | 1.6 | 0.00 | 0.00 | 0.00 | 71 | 1014.4 |
| 20260508061526 | 8 | 232 | 0.0 | 1.6 | 0.00 | 0.00 | 0.00 | 69 | 1014.4 |
| 20260508060025 | 8 | 232 | 0.0 | 1.6 | 0.00 | 0.00 | 0.00 | 69 | 1014.3 |
| 20260508054524 | 8 | 269 | 0.0 | 0.0 | 0.00 | 0.00 | 0.00 | 69 | 1014.5 |
| 20260508053025 | 8 | 244 | 0.0 | 1.6 | 0.00 | 0.00 | 0.00 | 72 | 1014.5 |
| 20260508051524 | 8 | 250 | 0.0 | 1.6 | 0.00 | 0.00 | 0.00 | 70 | 1014.5 |
| 20260508050025 | 7 | 275 | 0.0 | 1.6 | 0.00 | 0.00 | 0.00 | 71 | 1014.5 |
| 20260508044521 | 7 | 276 | 0.0 | 0.0 | 0.00 | 0.00 | 0.00 | 71 | 1014.5 |
| 20260508043019 | 7 | 276 | 0.0 | 0.0 | 0.00 | 0.00 | 0.00 | 70 | 1014.4 |
| 20260508041518 | 7 | 276 | 0.0 | 0.0 | 0.00 | 0.00 | 0.00 | 72 | 1014.4 |
| 20260508040015 | 7 | 276 | 0.0 | 0.0 | 0.00 | 0.00 | 0.00 | 72 | 1014.3 |
| 20260508034514 | 8 | 276 | 0.0 | 0.0 | 0.00 | 0.00 | 0.00 | 70 | 1014.3 |
| 20260508033017 | 8 | 276 | 0.0 | 0.0 | 0.00 | 0.00 | 0.00 | 69 | 1014.3 |
| 20260508031513 | 8 | 276 | 0.0 | 0.0 | 0.00 | 0.00 | 0.00 | 71 | 1014.4 |
| 20260508030012 | 7 | 276 | 0.0 | 0.0 | 0.00 | 0.00 | 0.00 | 71 | 1014.3 |
| 20260508024522 | 7 | 276 | 0.0 | 0.0 | 0.00 | 0.00 | 0.00 | 74 | 1014.3 |
| 20260508023011 | 8 | 276 | 0.0 | 0.0 | 0.00 | 0.00 | 0.00 | 78 | 1014.3 |
| 20260508021512 | 8 | 276 | 0.0 | 0.0 | 0.00 | 0.00 | 0.00 | 73 | 1014.0 |
| 20260508020015 | 8 | 276 | 0.0 | 0.0 | 0.00 | 0.00 | 0.00 | 72 | 1014.2 |
| 20260508014510 | 8 | 276 | 0.0 | 0.0 | 0.00 | 0.00 | 0.00 | 70 | 1014.2 |
| 20260508013009 | 9 | 276 | 0.0 | 0.0 | 0.00 | 0.00 | 0.00 | 68 | 1014.3 |
| 20260508011508 | 10 | 276 | 0.0 | 0.0 | 0.00 | 0.00 | 0.00 | 65 | 1014.1 |
| 20260508010009 | 10 | 276 | 0.0 | 0.0 | 0.00 | 0.00 | 0.00 | 61 | 1014.1 |
| 20260508004507 | 11 | 276 | 0.0 | 0.0 | 0.00 | 0.00 | 0.00 | 57 | 1014.1 |
| 20260508003007 | 11 | 276 | 0.0 | 0.0 | 0.00 | 0.00 | 0.00 | 53 | 1014.0 |
| 20260508001507 | 12 | 276 | 0.0 | 0.0 | 0.00 | 0.00 | 0.00 | 54 | 1013.9 |
| 20260508000006 | 12 | 276 | 0.0 | 0.0 | 0.00 | 0.00 | 0.00 | 51 | 1013.8 |
| 20260507234506 | 12 | 276 | 0.0 | 1.6 | 0.00 | 0.00 | 0.00 | 52 | 1013.6 |
| 20260507233005 | 13 | 276 | 0.0 | 0.0 | 0.00 | 0.00 | 0.00 | 52 | 1013.7 |
| 20260507231507 | 13 | 276 | 0.0 | 1.6 | 0.00 | 0.00 | 0.00 | 47 | 1013.7 |